Date,TemperatureHighF,TemperatureAvgF,TemperatureLowF,DewpointHighF,DewpointAvgF,DewpointLowF,HumidityHigh,HumidityAvg,HumidityLow,PressureMaxIn,PressureMinIn,WindSpeedMaxMPH,WindSpeedAvgMPH,GustSpeedMaxMPH,PrecipitationSumIn
2013-1-1,35.9,31.2,28.0,34.1,29.8,26.9,97,95,89,30.53,30.43,4,1,4,0.00
2013-1-2,40.1,33.8,29.5,36.5,31.3,28.2,96,90,80,30.43,30.22,4,1,4,0.01
2013-1-3,38.9,33.3,28.4,35.8,31.0,27.3,96,91,76,30.22,30.11,10,1,10,0.02
2013-1-4,42.9,40.2,35.5,42.1,39.0,33.9,97,95,91,30.31,30.14,14,2,14,0.03
2013-1-5,44.3,40.7,38.2,41.6,39.0,37.4,98,94,81,30.20,30.06,14,3,15,0.16
2013-1-6,41.5,39.4,38.0,39.1,37.8,36.4,96,94,89,30.15,29.86,22,8,22,0.41
2013-1-7,46.6,41.9,38.3,44.9,40.3,36.9,97,94,88,30.15,29.78,22,7,22,0.52
2013-1-8,48.2,42.6,38.7,47.3,41.3,37.1,97,95,92,30.15,29.64,24,7,24,1.01
2013-1-9,46.0,39.6,34.9,44.2,37.6,32.8,95,93,89,29.93,29.66,16,5,16,0.08
2013-1-10,34.8,32.3,27.0,33.2,30.1,23.9,96,92,81,30.15,29.92,12,2,12,0.17
2013-1-11,33.9,27.8,24.9,26.1,22.6,20.5,89,81,67,30.34,30.15,17,2,17,0.06
2013-1-12,31.2,25.3,21.8,25.7,21.6,18.5,95,86,66,30.47,30.34,7,1,7,0.02
2013-1-13,32.9,27.4,21.7,28.4,24.1,18.8,92,87,78,30.51,30.46,4,1,4,0.01
2013-1-14,32.8,31.6,30.2,30.7,28.6,25.4,94,89,81,30.60,30.49,9,1,9,0.00
2013-1-15,37.6,32.6,28.5,33.4,30.0,26.7,94,90,77,30.73,30.59,4,1,4,0.01
2013-1-16,37.1,30.6,27.8,32.2,28.3,26.3,95,91,82,30.71,30.54,4,0,4,0.00
2013-1-17,41.7,31.8,26.9,36.1,30.0,25.7,96,93,80,30.56,30.31,6,0,6,0.01
2013-1-18,35.7,31.6,28.5,34.6,30.8,27.5,98,97,95,30.37,30.28,5,0,5,0.00
2013-1-19,33.5,30.9,27.7,32.7,30.2,26.9,98,97,97,30.41,30.36,4,1,4,0.00
2013-1-20,39.9,32.2,28.1,36.4,31.0,27.6,98,95,85,30.42,30.30,4,0,4,0.01
2013-1-21,38.4,30.4,25.8,35.5,29.0,25.0,97,95,84,30.30,30.15,4,0,4,0.00
2013-1-22,36.7,31.8,25.9,35.6,30.3,24.8,97,94,84,30.18,29.93,4,0,4,0.01
2013-1-23,44.1,40.0,35.8,41.5,37.1,30.6,96,89,65,30.11,29.81,20,5,20,0.53
2013-1-24,42.4,39.3,36.4,39.8,37.4,35.1,96,93,85,30.21,29.99,21,4,21,0.17
2013-1-25,47.9,42.3,38.0,44.5,40.1,36.3,96,92,80,30.06,29.90,24,4,24,0.02
2013-1-26,39.3,37.2,34.3,37.2,35.8,33.3,97,94,87,30.02,29.86,13,4,13,0.52
2013-1-27,37.5,36.5,35.3,36.5,35.5,34.0,96,96,95,30.03,29.97,14,6,14,0.17
2013-1-28,37.8,36.0,34.6,36.9,35.1,33.3,97,96,95,30.06,29.98,12,4,12,0.17
2013-1-29,42.4,39.8,37.5,41.6,39.1,36.6,98,97,97,30.32,30.06,13,4,13,0.20
2013-1-30,45.1,43.0,41.0,43.9,42.1,39.9,97,97,96,30.38,30.31,17,5,17,0.03
2013-1-31,44.8,43.9,43.3,43.7,43.0,42.4,97,96,96,30.37,30.28,18,7,18,0.11
2013-2-1,47.7,42.5,36.8,43.4,40.6,35.8,97,93,80,30.44,30.33,7,1,7,0.00
2013-2-2,45.2,37.4,31.6,41.7,36.1,30.5,98,95,86,30.41,30.25,6,1,6,0.01
2013-2-3,42.6,40.3,36.9,41.3,39.4,35.9,97,97,94,30.31,30.19,12,2,12,0.12
2013-2-4,46.5,42.5,40.5,41.9,40.6,39.0,97,93,82,30.19,29.84,20,5,20,0.01
2013-2-5,46.7,44.0,41.4,41.6,40.5,39.2,95,88,78,29.90,29.76,32,11,32,0.10
2013-2-6,46.7,42.2,40.7,39.8,39.1,37.2,94,89,74,30.00,29.78,26,7,26,0.17
2013-2-7,44.2,39.5,32.9,39.3,36.0,31.4,95,87,76,30.20,29.76,38,6,38,0.08
2013-2-8,42.7,37.1,32.2,37.9,35.0,30.9,97,92,83,30.31,30.20,5,1,6,0.00
2013-2-9,40.4,37.6,32.8,39.1,36.2,31.8,96,95,90,30.35,30.27,4,1,4,0.06
2013-2-10,43.2,36.0,30.6,38.8,33.5,29.9,97,91,76,30.40,30.34,5,1,5,0.01
2013-2-11,41.1,39.1,37.5,38.9,37.4,35.8,96,93,90,30.36,30.32,16,6,16,0.00
2013-2-12,46.3,42.9,40.1,43.2,40.8,38.5,95,92,85,30.41,30.26,17,7,17,0.04
2013-2-13,46.3,42.4,39.5,42.5,39.3,37.1,93,89,81,30.49,30.28,16,6,16,0.00
2013-2-14,46.1,42.2,39.6,42.7,40.2,38.2,96,93,84,30.59,30.48,12,2,12,0.14
2013-2-15,49.2,42.3,38.3,43.9,40.3,37.3,97,93,79,30.58,30.18,6,1,6,0.00
2013-2-16,40.2,40.0,39.8,39.2,39.0,38.8,96,96,96,30.18,30.17,4,1,4,0.00
2013-2-17,43.4,38.1,35.2,37.2,35.1,33.4,95,89,74,30.21,29.88,5,0,9,0.04
2013-2-18,42.8,37.8,33.4,36.0,33.4,30.8,91,84,75,29.88,29.78,4,0,10,0.00
2013-2-19,46.3,38.0,32.1,38.3,33.4,30.3,96,84,61,30.00,29.76,12,2,12,0.00
2013-2-20,41.7,37.1,33.1,37.0,34.6,31.8,97,91,79,30.04,29.99,16,4,16,0.03
2013-2-21,39.9,37.7,33.4,38.6,36.2,32.1,96,94,90,30.05,29.98,21,7,21,0.13
2013-2-22,41.7,38.9,36.9,40.1,36.8,33.9,96,92,80,30.02,29.63,31,10,31,0.73
2013-2-23,46.8,41.2,36.7,38.5,36.2,33.0,93,83,62,30.34,29.85,13,3,13,0.00
2013-2-24,43.9,40.4,36.1,37.8,36.2,34.5,95,85,76,30.37,29.84,26,13,26,0.07
2013-2-25,43.7,39.8,36.8,38.3,36.8,34.6,95,89,73,30.28,29.82,29,8,29,0.53
2013-2-26,44.6,39.6,36.2,36.8,34.6,33.1,94,82,69,30.33,30.13,25,8,25,0.04
2013-2-27,47.6,40.0,36.3,39.9,37.1,34.6,95,90,71,30.32,30.16,18,3,25,0.14
2013-2-28,47.6,41.6,37.0,46.5,40.4,35.7,97,96,92,30.28,30.17,22,5,22,0.43
2013-3-1,53.5,50.4,47.6,49.0,47.8,46.5,96,91,82,30.29,30.21,26,12,26,0.29
2013-3-2,52.6,46.8,36.6,48.0,43.7,35.0,95,89,79,30.23,30.00,31,9,31,0.34
2013-3-3,43.6,37.0,32.4,37.3,34.0,30.8,96,89,72,30.32,30.16,13,3,13,0.00
2013-3-4,48.4,38.0,30.0,38.5,32.6,28.5,97,82,60,30.32,29.98,7,2,7,0.01
2013-3-5,47.1,41.0,36.2,38.5,33.0,27.1,95,74,58,29.98,29.76,6,1,6,0.03
2013-3-6,40.9,38.3,35.7,39.7,36.8,34.3,96,94,88,29.89,29.62,12,1,12,0.29
2013-3-7,44.1,39.9,36.6,41.6,38.1,35.3,95,93,87,30.12,29.90,12,3,12,0.06
2013-3-8,46.9,39.0,34.0,41.3,36.3,33.0,97,90,76,30.25,30.10,12,2,12,0.00
2013-3-9,49.5,39.7,33.2,41.4,36.2,31.8,96,88,69,30.50,30.25,10,2,10,0.00
2013-3-10,44.0,41.1,38.3,40.4,38.4,36.3,94,90,84,30.50,30.43,9,2,9,0.00
2013-3-11,48.0,41.9,35.9,40.8,38.2,34.6,96,87,72,30.46,30.13,7,1,7,0.11
2013-3-12,48.5,46.8,41.5,47.3,45.4,40.3,96,95,91,30.13,29.98,30,12,30,0.51
2013-3-13,50.6,48.7,46.9,48.3,47.1,45.5,96,94,90,30.15,30.05,31,12,31,0.43
2013-3-14,53.9,49.2,45.9,48.5,46.4,44.0,96,90,77,30.12,30.00,21,6,22,0.20
2013-3-15,57.1,48.9,44.7,49.6,45.9,42.8,97,90,72,30.20,30.11,20,5,20,0.39
2013-3-16,46.1,42.6,36.4,45.3,41.1,34.6,97,94,88,30.11,29.84,14,4,14,0.41
2013-3-17,46.5,39.7,36.2,37.2,34.7,33.1,94,83,62,30.16,29.93,13,4,13,0.00
2013-3-18,48.1,39.8,33.7,38.2,33.6,27.4,96,80,46,30.25,30.06,20,6,20,0.24
2013-3-19,50.8,40.1,32.7,40.4,33.9,28.4,95,79,50,30.25,29.55,15,2,15,0.06
2013-3-20,49.0,44.1,37.5,46.3,39.9,30.9,95,85,67,29.96,29.29,31,12,31,0.46
2013-3-21,46.3,37.8,33.1,35.6,33.0,30.5,95,83,63,30.19,29.96,14,5,14,0.07
2013-3-22,42.7,36.3,30.6,34.4,31.3,27.2,95,83,62,30.40,30.19,12,3,12,0.09
2013-3-23,46.4,36.9,30.1,34.4,29.7,27.1,92,76,48,30.41,30.32,8,2,8,0.00
2013-3-24,51.5,40.3,32.3,35.4,31.4,27.2,89,72,44,30.32,30.15,8,2,8,0.00
2013-3-25,55.1,44.4,37.6,39.5,35.2,30.1,84,71,48,30.16,29.98,8,2,8,0.00
2013-3-26,55.4,45.2,36.5,42.3,37.1,33.6,90,75,48,30.03,29.98,9,2,9,0.00
2013-3-27,56.6,46.6,38.5,44.9,40.3,35.3,93,79,59,30.01,29.96,8,1,8,0.00
2013-3-28,54.4,45.2,40.0,46.2,41.1,37.8,93,86,70,30.10,30.01,8,1,8,0.00
2013-4-4,52.2,51.5,50.9,50.2,49.8,49.3,95,94,93,29.80,29.79,7,5,14,0.00
2013-4-5,54.7,51.1,47.0,51.5,47.6,43.1,95,88,81,29.81,29.70,32,10,32,0.61
2013-4-6,52.5,46.2,40.4,45.1,42.2,38.9,96,86,63,29.87,29.61,14,4,32,0.92
2013-4-7,45.2,41.7,39.7,43.7,40.2,38.7,97,94,88,29.86,29.53,20,4,20,0.41
2013-4-8,52.7,44.7,41.0,46.1,41.9,39.3,96,90,69,30.24,29.85,10,4,19,1.10
2013-4-9,51.4,47.0,41.8,45.6,42.3,39.6,94,84,70,30.33,30.09,17,3,17,0.00
2013-4-10,49.8,48.8,47.2,46.7,43.8,40.1,94,83,70,30.10,29.84,34,16,35,0.04
2013-4-11,52.1,47.0,40.4,40.3,36.4,33.9,85,68,51,30.28,30.17,24,4,24,0.00
2013-4-12,43.0,39.6,37.8,39.7,36.7,34.0,95,89,82,30.17,29.63,29,6,29,0.44
2013-4-13,47.2,38.5,32.8,42.0,35.9,31.3,95,91,75,29.98,29.70,16,5,16,0.29
2013-4-14,50.6,41.5,35.6,41.0,37.0,34.3,96,85,62,30.00,29.92,12,3,16,0.02
2013-4-15,51.5,43.5,38.1,42.9,37.8,35.0,93,81,63,30.18,29.93,12,2,12,0.00
2013-4-16,58.1,45.4,34.2,39.6,33.3,25.5,95,66,30,30.38,30.17,17,6,17,0.00
2013-4-17,56.4,48.1,41.3,39.8,35.6,29.8,78,62,44,30.43,30.38,17,5,17,0.00
2013-4-18,48.7,44.6,41.5,44.2,42.0,39.0,95,91,78,30.42,30.16,20,6,20,0.33
2013-4-19,51.9,47.7,45.2,50.1,46.1,43.8,96,94,90,30.16,30.05,20,5,20,0.41
2013-4-20,53.6,47.7,44.5,47.8,44.1,40.5,96,88,75,30.23,30.13,16,5,16,0.18
2013-4-21,51.2,44.4,38.4,44.7,39.2,33.2,96,83,56,30.38,30.20,16,4,16,0.31
2013-4-22,55.9,44.6,33.1,39.7,32.4,24.5,89,65,32,30.54,30.39,12,3,16,0.00
2013-4-23,57.2,47.5,38.6,43.5,35.6,26.0,81,64,51,30.43,30.27,10,3,10,0.00
2013-4-24,63.1,51.2,39.4,44.3,38.0,32.6,89,63,35,30.32,30.05,10,2,9,0.00
2013-4-25,63.6,53.3,42.0,46.9,41.7,36.0,83,65,46,30.12,30.03,10,3,10,0.00
2013-4-26,65.2,55.6,46.2,49.6,41.8,34.2,85,62,40,30.22,30.12,15,7,15,0.00
2013-4-27,54.1,49.4,45.6,46.7,43.5,38.7,95,81,56,30.18,30.10,20,6,20,0.27
2013-4-28,54.2,46.6,41.3,44.7,41.8,39.1,94,84,67,30.19,29.90,16,4,16,0.11
2013-4-29,51.9,44.8,40.8,43.1,36.9,30.6,94,75,49,30.13,29.89,16,5,16,0.08
2013-4-30,50.7,43.7,38.4,37.5,34.8,31.5,82,71,53,30.43,30.13,12,4,16,0.01
2013-5-1,57.8,47.7,36.3,39.3,35.0,31.1,86,63,42,30.59,30.43,8,3,8,0.00
2013-5-2,61.4,50.3,41.0,45.3,40.5,34.3,90,70,52,30.56,30.38,9,2,9,0.00
2013-5-3,44.6,43.5,43.2,41.8,41.0,40.5,91,91,90,30.40,30.39,4,1,4,0.00
2013-5-4,69.7,63.5,43.2,51.8,46.9,40.8,91,55,43,30.40,30.00,9,3,9,0.00
2013-5-5,74.8,62.3,48.8,52.8,46.6,42.9,83,59,35,30.01,29.78,8,2,8,0.00
2013-5-6,79.0,65.6,56.3,52.4,47.8,41.9,71,54,34,29.85,29.75,9,2,9,0.00
2013-5-7,68.2,60.1,52.3,55.9,50.1,46.7,83,70,51,29.96,29.78,15,5,15,0.00
2013-5-8,63.6,55.5,47.9,55.2,50.3,46.1,94,83,71,30.13,29.96,13,4,13,0.00
2013-5-9,65.8,55.9,46.1,54.5,49.7,44.5,95,81,61,30.21,30.11,8,2,8,0.00
2013-5-10,72.0,59.3,47.4,57.0,51.8,45.5,94,77,56,30.20,30.11,8,2,8,0.00
2013-5-11,72.9,61.3,54.9,56.2,52.4,48.5,93,73,55,30.15,29.97,10,2,10,0.02
2013-5-12,64.7,58.6,55.1,58.0,55.7,53.0,96,90,77,30.05,29.97,21,4,21,0.60
2013-5-13,62.6,53.8,46.9,54.6,49.9,41.8,96,87,68,30.16,29.88,22,6,22,0.21
2013-5-14,59.9,51.5,44.7,47.2,42.5,33.8,93,73,41,30.21,30.12,13,4,13,0.01
2013-5-15,64.3,52.9,44.6,49.6,45.3,40.3,94,76,50,30.12,30.00,12,2,12,0.12
2013-5-16,62.4,54.3,49.1,54.0,50.2,46.4,96,87,71,30.01,29.88,10,2,10,0.05
2013-5-17,57.2,52.9,49.9,52.1,49.4,47.4,95,88,79,30.04,29.92,15,4,15,0.26
2013-5-18,57.8,52.3,48.1,50.3,48.3,46.8,96,87,69,30.26,30.03,9,3,9,0.11
2013-5-19,60.9,53.2,47.6,51.2,47.9,44.8,92,83,62,30.40,30.26,12,3,12,0.00
2013-5-20,61.5,53.3,46.2,51.3,47.4,43.9,93,81,64,30.34,29.90,9,3,9,0.00
2013-5-21,52.1,47.5,44.5,48.0,45.7,43.2,96,94,85,29.91,29.78,9,1,9,0.67
2013-5-22,53.3,48.1,44.5,46.3,44.2,42.8,96,87,69,29.94,29.84,13,3,13,0.23
2013-5-23,60.2,48.1,40.1,48.6,44.0,39.1,97,86,58,30.00,29.92,12,3,12,0.02
2013-5-24,59.8,50.6,41.2,48.2,44.1,39.7,95,79,60,30.03,29.97,12,3,12,0.00
2013-5-25,61.4,53.4,47.9,49.8,46.8,44.6,94,79,58,30.02,29.98,16,4,16,0.00
2013-5-26,55.9,51.9,49.0,54.2,50.3,46.2,97,94,85,29.99,29.93,4,0,4,0.54
2013-5-27,57.2,53.2,47.7,54.6,51.2,46.6,97,93,84,29.93,29.69,8,1,8,0.19
2013-5-28,57.2,53.3,49.6,53.1,50.0,47.5,96,89,76,29.85,29.73,24,6,24,0.07
2013-5-29,55.1,50.8,48.0,51.4,48.6,45.8,97,92,83,29.94,29.67,15,3,15,0.04
2013-5-30,59.7,51.7,46.6,51.0,47.6,45.0,95,87,68,30.22,29.94,18,4,18,0.09
2013-5-31,61.4,53.4,47.8,50.1,47.1,42.6,94,80,54,30.34,30.22,14,4,14,0.00
2013-6-1,64.1,55.3,47.3,54.3,48.5,43.9,90,78,62,30.25,30.08,9,2,9,0.01
2013-6-2,62.6,55.8,50.9,53.6,49.5,47.0,92,80,58,30.09,30.03,10,3,10,0.00
2013-6-3,66.5,57.6,48.8,54.2,49.7,45.1,89,75,56,30.11,30.05,13,3,13,0.00
2013-6-4,72.9,60.7,48.7,57.9,51.1,46.2,92,73,44,30.14,30.02,9,2,9,0.00
2013-6-5,70.0,61.6,56.0,59.0,52.2,43.7,85,72,56,30.08,30.01,14,4,14,0.00
2013-6-6,72.0,61.9,51.3,57.6,50.4,37.8,87,68,37,30.05,29.97,15,4,15,0.00
2013-6-7,66.1,58.0,51.6,53.4,45.2,34.6,79,63,43,30.12,29.98,21,9,21,0.01
2013-6-8,63.6,55.5,48.1,50.6,47.2,44.5,89,75,57,30.16,30.09,16,7,16,0.00
2013-6-9,65.3,55.5,48.9,51.7,46.9,42.1,92,74,48,30.10,30.02,13,6,13,0.00
2013-6-10,64.5,54.9,43.4,50.6,46.1,40.6,91,73,57,30.02,29.87,14,4,14,0.00
2013-6-11,62.3,54.2,49.9,51.8,46.1,43.0,88,75,50,30.08,29.91,14,4,14,0.00
2013-6-12,59.7,53.1,48.1,55.2,49.3,46.2,95,87,71,30.13,30.08,14,4,14,0.46
2013-6-13,64.4,55.7,48.1,52.3,48.6,44.2,96,78,54,30.17,30.13,16,4,16,0.00
2013-6-14,63.4,54.7,50.1,52.6,49.2,46.7,92,82,66,30.22,30.07,15,5,15,0.01
2013-6-15,67.5,58.0,46.3,57.3,51.5,44.9,96,80,61,30.07,29.93,10,2,10,0.00
2013-6-16,69.8,60.7,54.8,56.3,52.9,49.5,91,76,60,30.07,29.98,19,5,19,0.03
2013-6-17,69.3,61.1,53.2,56.6,52.3,49.0,90,74,58,30.07,29.89,17,4,17,0.03
2013-6-18,69.5,59.6,51.5,54.8,50.5,46.6,95,74,49,29.95,29.88,16,3,16,0.03
2013-6-19,65.3,57.5,52.4,54.5,50.0,46.5,88,77,54,29.96,29.88,13,6,13,0.00
2013-6-20,55.1,51.6,50.1,51.7,49.9,47.7,96,94,76,30.08,29.90,15,5,15,1.26
2013-6-21,63.2,55.6,50.1,54.3,51.1,48.6,95,85,70,30.16,30.08,15,4,15,0.01
2013-6-22,71.0,60.4,50.7,57.5,53.4,48.4,93,78,60,30.12,29.86,8,2,8,0.00
2013-6-23,67.3,61.0,53.6,62.5,57.7,51.6,96,89,77,29.86,29.59,6,1,6,0.05
2013-6-24,63.2,58.7,55.4,58.8,56.2,53.5,97,92,79,29.68,29.54,20,3,20,0.25
2013-6-25,70.3,60.2,54.7,59.8,54.9,52.8,96,84,61,29.80,29.66,20,4,20,0.04
2013-6-26,71.1,62.1,55.6,58.4,54.9,51.1,91,78,61,30.06,29.80,15,5,15,0.02
2013-6-27,69.5,62.6,57.7,62.9,58.9,54.7,96,88,74,30.21,30.04,12,1,12,0.01
2013-6-28,74.2,64.6,56.6,66.2,60.8,55.5,97,88,75,30.21,30.06,8,1,8,0.01
2013-6-30,83.9,74.2,66.0,70.0,64.1,61.3,86,71,61,29.91,29.85,6,2,6,0.10
2013-7-1,83.0,71.7,63.3,66.8,62.2,55.3,91,73,57,29.99,29.90,18,5,18,0.00
2013-7-2,79.1,66.8,58.7,62.5,55.6,47.4,81,68,51,30.09,29.99,17,7,17,0.00
2013-7-3,72.8,62.9,54.1,55.7,49.7,37.2,82,63,34,30.14,30.03,18,6,18,0.00
2013-7-4,70.3,60.6,52.8,56.3,52.1,47.5,89,75,58,30.10,30.03,20,9,20,0.00
2013-7-5,69.3,61.1,52.5,57.6,53.4,48.7,88,77,56,30.02,29.95,9,3,9,0.00
2013-7-6,73.6,62.6,53.0,57.5,53.1,50.4,92,73,46,29.98,29.86,9,2,9,0.00
2013-7-7,73.0,64.2,56.5,58.3,54.5,50.0,84,71,57,29.94,29.87,12,3,12,0.00
2013-7-8,64.7,57.5,54.7,57.7,53.3,51.8,91,86,78,30.07,29.92,13,3,13,0.00
2013-7-9,80.0,72.1,59.4,61.3,57.0,49.5,82,60,42,30.11,29.98,16,5,16,0.00
2013-7-10,71.9,60.8,52.4,57.9,51.0,43.4,88,71,50,30.03,29.92,23,10,23,0.00
2013-7-11,67.9,57.9,51.1,50.1,47.1,43.7,87,69,49,30.07,29.94,20,8,20,0.00
2013-7-12,67.3,58.0,50.0,54.0,48.4,44.1,86,71,53,30.09,30.01,13,5,13,0.00
2013-7-13,70.3,60.7,51.0,54.4,48.7,43.9,85,66,47,30.20,30.09,16,5,16,0.00
2013-7-14,74.8,62.9,51.8,55.6,49.5,39.6,85,64,32,30.14,30.00,13,3,13,0.00
2013-7-15,78.0,65.1,53.1,57.0,50.4,45.4,94,63,34,30.06,29.91,16,4,16,0.00
2013-7-16,86.7,69.8,56.3,58.6,52.3,47.6,78,56,29,29.91,29.82,12,2,12,0.00
2013-7-17,74.5,67.1,58.8,60.9,56.9,49.1,82,70,55,30.18,29.85,20,6,20,0.00
2013-7-18,72.8,63.6,57.7,59.4,55.8,52.7,84,76,61,30.22,30.12,10,3,10,0.00
2013-7-19,73.8,64.7,56.1,61.3,57.0,52.6,89,77,60,30.15,30.03,9,3,9,0.00
2013-7-20,72.3,61.5,53.3,59.9,54.5,50.6,91,79,62,30.07,29.95,13,6,13,0.00
2013-7-21,72.3,62.4,53.7,60.0,55.2,50.4,89,78,63,29.96,29.90,12,4,12,0.00
2013-7-22,72.3,63.0,53.2,60.9,56.3,50.9,93,80,58,30.05,29.93,13,4,13,0.00
2013-7-23,78.2,65.7,54.7,60.4,55.4,50.8,95,72,41,30.07,29.98,7,2,7,0.00
2013-7-24,78.2,66.5,55.5,59.3,54.8,49.3,84,67,47,30.05,29.99,10,3,10,0.00
2013-7-25,75.9,64.4,51.9,59.8,54.2,48.8,92,71,51,30.10,30.01,9,2,9,0.00
2013-7-26,75.5,64.2,55.3,58.7,52.8,46.6,84,68,38,30.15,30.06,14,3,14,0.00
2013-7-27,71.8,62.4,53.8,55.5,51.8,47.1,86,69,44,30.15,29.99,10,3,10,0.00
2013-7-28,70.9,62.3,52.4,58.2,53.0,48.3,86,72,55,30.00,29.93,13,4,13,0.00
2013-7-29,70.2,62.5,54.6,58.0,54.5,51.8,91,76,61,30.00,29.93,13,5,13,0.00
2013-7-30,71.6,63.5,54.2,59.7,55.7,51.2,91,76,61,30.12,29.99,13,3,13,0.00
2013-7-31,71.0,62.1,54.9,61.1,56.5,52.4,92,82,68,30.11,29.99,13,2,13,0.01
2013-8-1,65.5,59.7,53.9,59.0,55.8,51.8,95,87,76,30.04,30.00,17,6,17,0.00
2013-8-2,60.6,57.5,54.8,58.1,55.2,53.3,95,92,85,30.14,30.03,13,3,13,0.32
2013-8-3,70.7,61.8,55.0,60.2,56.7,53.6,96,84,69,30.15,30.06,9,2,9,0.00
2013-8-4,74.2,64.5,55.5,63.5,58.2,53.5,94,81,63,30.07,29.95,10,2,10,0.00
2013-8-5,77.6,66.0,56.0,62.8,57.9,53.4,95,77,51,30.01,29.92,9,2,9,0.00
2013-8-6,77.3,65.0,52.4,59.4,54.4,49.9,93,71,39,30.00,29.92,8,2,8,0.00
2013-8-7,77.7,66.5,54.0,59.7,55.0,51.4,92,68,43,30.00,29.93,13,3,13,0.00
2013-8-8,76.6,66.3,57.9,62.4,56.8,50.7,93,73,52,30.01,29.92,16,6,16,0.00
2013-8-9,77.5,66.2,53.6,62.7,56.2,50.4,90,71,54,29.94,29.82,12,3,12,0.00
2013-8-10,75.8,67.0,60.6,63.9,58.2,50.8,89,74,61,29.99,29.84,20,4,20,0.00
2013-8-11,69.2,61.5,54.7,59.7,55.7,51.2,94,82,68,30.07,29.98,20,4,20,0.05
2013-8-12,70.6,62.5,56.0,58.8,55.2,52.8,89,78,58,30.07,30.00,12,3,12,0.00
2013-8-13,73.3,63.4,55.7,57.6,54.9,51.9,88,75,56,30.10,29.93,12,3,12,0.00
2013-8-14,75.9,64.5,56.0,64.5,58.5,53.3,95,82,60,29.96,29.90,6,1,6,0.08
2013-8-15,67.0,63.5,60.8,63.0,61.1,59.4,96,92,86,29.99,29.91,8,1,8,0.01
2013-8-16,76.0,66.4,57.7,64.3,60.8,56.6,97,83,58,30.01,29.95,12,2,12,0.01
2013-8-17,74.7,65.4,59.7,61.8,58.1,55.3,91,78,62,30.06,29.97,14,4,14,0.00
2013-8-18,74.3,64.7,58.9,60.6,56.0,52.1,86,74,59,30.11,30.05,12,4,12,0.00
2013-8-19,70.1,62.3,56.1,60.4,53.4,48.0,88,73,57,30.13,30.05,13,4,13,0.00
2013-8-20,70.3,60.2,53.1,59.5,52.4,43.8,92,77,53,30.18,30.09,13,4,13,0.00
2013-8-21,73.8,62.1,50.5,58.4,51.9,44.0,85,70,54,30.11,29.95,10,2,10,0.00
2013-8-22,77.9,67.0,55.4,59.4,54.4,50.1,85,65,45,29.97,29.79,14,3,14,0.00
2013-8-23,72.9,63.7,57.4,58.8,55.7,51.8,89,76,58,29.87,29.80,18,5,18,0.00
2013-8-24,70.7,61.5,56.6,59.0,55.5,51.5,95,81,55,29.91,29.87,12,2,12,0.15
2013-8-25,72.2,61.4,51.8,57.7,53.6,49.5,93,77,54,29.95,29.86,9,2,9,0.00
2013-8-26,76.8,64.4,58.1,59.1,55.1,52.5,86,73,53,29.92,29.82,23,5,23,0.00
2013-8-27,73.0,65.2,58.8,60.5,57.7,54.7,95,77,62,29.93,29.79,15,3,15,0.11
2013-8-28,72.8,64.2,57.8,64.8,61.2,56.4,97,90,75,29.89,29.81,8,1,8,0.12
2013-8-29,71.4,65.1,61.4,64.8,61.8,59.9,97,90,73,29.93,29.85,28,5,28,0.21
2013-8-30,72.4,63.6,57.1,61.0,58.3,55.4,97,84,63,30.15,29.93,24,3,24,0.07
2013-8-31,72.2,61.7,53.5,60.7,56.3,52.4,97,83,62,30.09,29.85,8,2,8,0.00
2013-9-1,75.2,64.5,55.8,61.7,56.5,52.3,91,76,58,29.88,29.79,10,2,10,0.00
2013-9-2,74.3,65.3,59.0,61.8,58.2,54.9,91,78,64,29.94,29.85,8,2,8,0.00
2013-9-3,68.8,61.7,58.0,63.9,59.0,55.1,97,91,83,30.03,29.93,7,1,7,0.20
2013-9-4,67.8,61.1,57.0,62.2,58.7,55.8,98,92,78,30.06,30.01,8,1,8,0.10
2013-9-5,64.1,59.1,55.2,62.8,58.1,54.4,97,97,95,30.06,29.92,7,1,7,0.15
2013-9-6,67.2,61.0,58.4,63.2,59.7,57.6,98,96,85,30.08,29.91,17,2,17,0.06
2013-9-7,70.0,62.7,57.3,63.9,59.4,55.9,97,89,73,30.10,30.03,16,2,16,0.03
2013-9-8,72.8,62.6,55.9,62.4,58.5,54.8,97,87,68,30.11,30.02,8,1,8,0.02
2013-9-9,70.8,62.0,54.2,62.4,57.8,52.9,97,87,69,30.07,29.99,8,2,8,0.01
2013-9-10,74.7,63.5,54.5,63.9,59.0,53.3,97,86,68,30.01,29.91,10,2,10,0.01
2013-9-11,84.3,69.4,58.9,65.8,61.0,57.5,96,77,49,29.96,29.89,6,1,6,0.00
2013-9-12,77.2,67.6,60.8,64.0,59.1,54.9,87,75,54,29.98,29.88,12,2,12,0.02
2013-9-13,69.9,61.2,56.3,62.1,58.0,54.6,96,89,76,29.96,29.85,13,4,13,0.00
2013-9-14,64.5,60.1,57.8,61.1,58.3,56.4,97,94,88,29.89,29.75,7,1,7,0.00
2013-9-15,68.5,59.5,56.1,61.7,57.7,55.3,98,94,77,29.79,29.71,20,3,20,0.01
2013-9-16,61.7,58.3,54.6,60.0,56.3,49.8,97,93,83,29.91,29.78,15,5,15,0.26
2013-9-17,60.9,55.9,53.5,55.4,52.2,50.1,93,88,75,29.91,29.85,17,4,17,0.03
2013-9-18,65.8,57.0,51.7,55.3,51.4,48.0,94,82,57,30.07,29.91,14,5,14,0.00
2013-9-19,73.3,60.4,50.1,56.9,51.8,47.1,94,75,49,30.06,29.76,7,1,7,0.00
2013-9-20,66.8,58.4,55.5,54.8,53.5,48.4,95,85,55,29.75,29.58,10,2,10,0.09
2013-9-21,65.8,58.7,54.8,56.1,53.2,49.6,95,83,60,29.70,29.63,14,4,14,0.05
2013-9-22,56.4,54.2,51.5,53.2,51.8,49.1,95,92,79,29.69,29.48,31,8,31,0.49
2013-9-23,55.5,52.2,48.5,53.4,49.8,45.8,96,92,80,29.95,29.68,12,4,12,0.26
2013-9-24,58.5,50.9,47.2,52.9,47.7,45.2,94,89,74,29.95,29.84,8,2,8,0.06
2013-9-25,59.1,50.7,44.8,51.1,46.8,43.7,96,87,67,30.02,29.87,12,3,12,0.00
2013-9-26,59.7,51.0,43.6,49.1,45.8,42.2,96,83,61,30.12,30.02,13,3,13,0.00
2013-9-27,52.7,50.8,49.2,49.6,48.0,45.9,95,90,78,30.10,29.83,22,7,22,0.51
2013-9-28,57.3,52.3,48.9,55.9,50.8,47.1,96,95,90,29.82,29.28,29,9,29,0.82
2013-9-29,54.2,50.8,47.6,49.9,48.3,44.4,95,91,78,29.51,29.09,30,11,30,0.70
2013-9-30,51.9,48.2,45.7,49.3,46.2,43.8,95,93,88,29.89,29.31,23,8,23,0.31
2013-10-1,53.2,48.2,45.4,47.7,45.2,43.4,95,90,78,30.09,29.88,22,8,22,0.06
2013-10-2,49.2,46.9,43.3,47.8,45.6,42.5,97,95,92,30.19,30.06,14,3,14,0.43
2013-10-3,53.6,46.2,41.4,48.6,44.5,40.6,98,94,81,30.47,30.19,6,1,6,5.16
2013-10-4,56.2,48.4,40.1,49.6,45.3,39.1,97,90,74,30.50,30.35,6,1,6,0.00
2013-10-5,63.2,54.3,49.4,52.1,49.2,45.9,94,84,60,30.37,30.14,7,1,7,0.00
2013-10-6,72.0,58.1,46.7,55.8,45.2,36.7,95,67,29,30.14,29.80,27,6,27,0.00
2013-10-7,57.4,52.2,49.1,51.6,48.4,45.6,94,87,71,29.97,29.80,34,9,34,0.40
2013-10-8,53.2,47.7,43.2,48.2,44.8,41.1,96,90,69,30.09,29.95,55,2,15,0.19
2013-10-9,53.1,46.0,37.3,46.6,41.7,36.1,96,85,72,30.15,29.96,10,2,10,0.00
2013-10-10,52.8,47.8,41.8,47.7,43.9,40.4,95,86,77,30.08,29.93,11,3,11,0.01
2013-10-11,51.7,45.7,39.0,47.2,43.1,37.9,97,91,78,30.16,30.08,5,0,5,0.00
2013-10-12,54.4,47.5,42.7,48.9,45.4,41.6,97,93,78,30.23,30.08,10,1,10,0.09
2013-10-13,54.1,46.5,40.7,47.6,43.6,39.8,97,90,72,30.38,30.23,6,1,6,0.00
2013-10-14,54.0,45.5,38.6,48.2,42.8,37.8,97,91,72,30.44,30.38,7,1,7,0.00
2013-10-15,55.6,47.3,41.7,49.6,45.2,40.9,97,92,79,30.41,30.19,6,0,6,0.01
2013-10-16,53.6,47.2,44.1,49.8,45.7,42.8,98,95,82,30.22,30.16,7,1,7,0.00
2013-10-17,55.2,47.7,41.4,49.4,45.6,40.3,97,93,76,30.28,30.22,6,0,6,0.00
2013-10-18,54.7,45.3,39.1,49.6,43.6,38.3,98,94,80,30.27,30.17,6,1,6,0.00
2013-10-19,48.4,43.9,40.1,46.7,42.9,39.3,98,96,92,30.22,30.16,6,0,6,0.01
2013-10-20,49.6,46.1,43.6,47.3,45.0,42.8,98,96,91,30.22,30.16,4,0,4,0.00
2013-10-21,51.4,46.6,44.9,49.0,45.9,44.4,98,97,91,30.18,30.11,4,0,4,0.01
2013-10-22,54.9,46.8,42.9,51.6,45.9,42.4,98,97,88,30.14,30.04,4,0,4,0.00
2013-10-23,59.9,48.5,40.8,52.7,46.6,40.3,98,94,75,30.06,30.00,4,0,4,0.01
2013-10-24,56.4,47.1,41.9,51.8,45.5,40.8,98,94,84,30.11,30.03,7,1,7,0.01
2013-10-25,51.5,47.1,41.8,49.0,45.6,40.7,98,95,89,30.34,30.12,8,1,8,0.00
2013-10-26,51.5,48.0,44.0,46.6,45.7,42.4,95,92,82,30.35,30.19,7,1,7,0.00
2013-10-27,56.4,50.1,46.0,48.8,43.5,33.6,97,80,49,30.19,29.93,25,6,25,0.05
2013-10-28,54.2,48.9,40.9,33.8,30.3,27.8,67,49,38,30.01,29.91,28,6,28,0.00
2013-10-29,51.5,42.7,36.1,40.2,34.3,30.1,82,72,53,30.03,29.95,7,1,7,0.00
2013-10-30,54.1,46.1,39.3,45.5,40.2,33.6,93,80,62,30.12,30.03,22,3,22,0.04
2013-10-31,51.2,47.7,45.4,49.1,46.2,43.3,96,95,91,30.25,30.04,22,7,22,0.38
2013-11-1,53.2,50.3,48.5,50.0,48.2,47.3,96,92,86,30.26,29.79,20,3,20,0.05
2013-11-2,50.9,45.1,40.1,48.3,43.8,38.8,97,95,88,29.86,29.36,33,5,33,1.33
2013-11-3,45.3,39.8,34.5,41.6,37.9,33.4,97,93,81,30.12,29.86,10,2,10,0.18
2013-11-4,42.8,37.3,31.5,40.4,35.6,30.5,97,93,86,30.20,30.08,4,0,4,0.02
2013-11-5,43.0,40.8,38.9,42.2,39.8,37.3,97,96,92,30.27,30.03,4,0,4,0.12
2013-11-6,48.1,43.7,40.4,45.6,42.3,39.6,98,95,89,30.34,29.99,5,0,5,0.02
2013-11-7,52.2,47.1,44.0,49.5,45.4,42.7,97,94,87,29.99,29.64,32,9,32,0.46
2013-11-8,51.0,45.6,41.1,45.7,42.9,39.9,96,91,80,30.16,29.94,16,4,16,0.10
2013-11-9,46.6,42.0,38.7,43.8,40.4,37.6,97,94,86,30.16,30.09,4,0,4,0.00
2013-11-10,46.8,44.0,40.4,43.6,42.1,39.1,96,93,86,30.18,30.14,4,0,4,0.02
2013-11-11,52.9,46.2,41.1,48.7,44.3,40.0,97,93,85,30.17,30.00,4,0,4,0.00
2013-11-12,53.6,50.7,47.1,50.3,48.1,44.2,94,91,88,30.32,30.00,25,7,25,0.15
2013-11-13,52.9,49.5,47.0,49.4,46.8,44.5,95,91,83,30.42,30.30,14,4,14,0.05
2013-11-14,47.4,44.6,40.1,45.1,42.3,38.0,96,92,83,30.31,30.05,10,2,10,0.01
2013-11-15,43.4,41.4,38.9,42.6,39.7,37.3,97,94,88,30.05,29.28,25,9,25,0.60
2013-11-16,44.7,41.9,38.2,40.0,37.3,34.4,93,84,74,29.73,29.34,18,5,18,0.01
2013-11-17,45.1,41.7,37.0,43.1,39.7,34.4,96,92,87,29.89,29.73,21,5,21,0.15
2013-11-18,47.2,45.0,43.6,46.4,43.9,42.0,97,96,94,29.89,29.51,20,3,20,0.70
2013-11-19,44.1,38.3,31.4,42.7,33.3,21.1,97,83,49,30.07,29.57,16,2,16,0.19
2013-11-20,37.6,29.9,25.7,30.7,24.5,20.8,88,80,64,30.54,30.07,8,1,8,0.00
2013-11-21,36.0,28.7,24.4,28.9,24.0,21.2,92,83,65,30.70,30.54,7,1,7,0.00
2013-11-22,39.2,30.8,25.7,31.0,26.4,22.3,90,84,68,30.69,30.48,4,0,4,0.00
2013-11-23,45.2,35.1,29.2,35.8,30.9,26.2,93,85,68,30.48,30.22,5,1,5,0.00
2013-11-24,44.3,36.8,31.2,38.2,34.1,29.7,96,90,78,30.27,30.19,5,1,5,0.00
2013-11-25,49.2,40.5,35.6,40.8,37.0,33.5,93,87,69,30.33,30.27,4,0,4,0.00
2013-11-26,47.2,41.1,35.0,40.6,36.5,33.1,95,84,63,30.28,30.11,5,0,5,0.00
2013-11-27,49.7,43.4,39.9,40.9,37.2,32.2,90,79,63,30.11,29.98,5,0,5,0.00
2013-11-28,50.6,43.8,38.7,44.2,40.5,36.6,96,88,77,30.18,30.03,4,0,4,0.03
2013-11-29,47.7,45.2,43.6,44.0,42.1,39.5,96,89,81,30.31,30.18,16,5,16,0.13
2013-11-30,45.9,44.3,43.2,44.8,43.1,41.7,96,95,94,30.32,30.05,22,7,22,0.32
2013-12-1,48.8,46.1,39.8,47.7,43.5,32.4,97,91,71,30.05,29.71,22,9,22,0.31
2013-12-2,39.7,34.3,27.5,35.0,30.6,18.7,94,86,69,30.11,29.77,16,3,16,0.06
2013-12-3,33.8,27.9,23.9,20.3,18.5,15.9,81,68,52,30.35,30.12,16,3,16,0.05
2013-12-4,33.6,26.1,21.3,18.2,15.5,11.2,83,65,42,30.38,30.33,10,2,10,0.02
2013-12-5,30.1,24.2,20.6,23.0,18.3,13.7,86,78,65,30.35,30.22,4,0,4,0.00
2013-12-6,25.4,19.4,16.5,14.6,6.1,0.6,78,57,42,30.33,30.23,14,4,14,0.00
2013-12-7,23.9,16.1,11.9,7.7,4.0,0.4,70,59,37,30.45,30.32,9,1,9,0.00
2013-12-8,27.8,22.8,16.1,15.4,11.6,5.5,79,62,50,30.58,30.43,6,1,6,0.00
2013-12-9,30.1,27.9,23.4,26.3,19.7,13.7,89,71,61,30.59,30.49,14,4,14,0.00
2013-12-10,34.3,31.9,29.0,31.7,29.2,26.2,92,90,88,30.50,30.44,14,2,14,0.00
2013-12-11,33.2,32.0,31.9,30.3,29.4,29.2,90,90,89,30.44,30.39,4,0,4,0.00
2013-12-12,45.2,37.0,31.9,39.2,33.8,29.3,95,88,66,30.39,29.99,34,4,34,0.17
2013-12-13,43.4,41.7,39.0,42.3,40.6,37.8,96,96,95,30.43,30.13,15,4,15,0.09
2013-12-14,46.8,44.5,41.8,43.6,42.6,40.6,97,93,88,30.44,30.28,25,6,25,0.04
2013-12-15,47.7,45.3,41.3,45.5,43.5,39.6,96,93,90,30.44,30.29,22,8,22,0.08
2013-12-16,47.8,41.0,36.0,42.0,38.9,34.7,96,92,79,30.49,30.26,12,4,12,0.00
2013-12-17,41.0,38.4,34.8,39.4,37.0,33.8,97,94,88,30.27,30.09,20,4,20,0.01
2013-12-18,41.7,38.3,30.8,39.6,34.4,22.2,94,86,70,30.21,30.05,17,3,17,0.02
2013-12-19,35.3,31.6,27.7,25.6,22.0,16.9,77,67,55,30.36,30.21,16,2,16,0.00
2013-12-20,33.7,31.7,29.2,32.7,29.8,24.3,96,93,74,30.21,29.72,23,3,23,0.03
2013-12-21,36.9,34.7,32.5,36.1,33.8,31.5,97,97,96,30.18,29.88,4,0,1,0.47
2013-12-22,44.8,39.1,35.9,44.3,38.5,35.1,98,98,97,30.30,30.17,16,1,16,0.55
2013-12-23,48.2,44.7,41.0,45.7,42.3,37.9,98,91,80,30.50,30.10,24,7,24,0.20
2013-12-24,45.6,40.0,33.6,39.9,37.3,32.1,96,90,78,30.61,30.50,12,3,12,0.00
2013-12-25,39.4,35.7,30.4,37.8,34.3,29.3,97,95,90,30.55,30.40,5,0,5,0.00
2013-12-26,46.4,39.4,35.8,44.5,38.3,35.0,98,96,91,30.42,30.21,4,0,4,0.07
2013-12-27,44.4,40.6,36.9,43.3,39.6,36.1,98,97,95,30.36,30.07,20,3,20,0.28
2013-12-28,42.5,41.1,39.2,41.1,39.8,38.2,97,95,93,30.53,30.36,9,1,9,0.02
2013-12-29,42.2,39.1,36.2,39.9,37.8,35.2,97,95,91,30.49,30.33,10,1,10,0.01
2013-12-30,45.3,41.0,38.3,41.9,39.5,37.3,97,94,86,30.33,30.09,17,3,17,0.02
2013-12-31,43.4,42.1,41.1,42.3,40.9,39.8,97,96,94,30.40,30.18,16,4,16,0.03
2014-1-1,43.3,40.7,37.6,42.3,39.7,36.6,98,96,95,30.43,30.25,4,0,4,0.02
2014-1-2,44.5,42.4,40.0,43.6,41.3,37.3,98,96,90,30.25,29.85,24,5,24,0.57